When you browse on this site, cookies collect data to enhance your experience and personalize the content and advertising you see.
Visit our Privacy Policy to learn more. By continuing to use the site, you agree to this use of cookies and data.
  • In United Kingdom
  • List of Countries
  • For 7 days
  • Water Temperature
  • Weather Map
  • Weather Widgets
  • user-avatar
    Login

    Hourly Weather Kiustendil

    Today, 16 October, Wednesday

    Time Temperature Precipitation Wind Pressure Humidity
    00:00 +8°C° 0 mm 1 mps 626 mmHg 44%
    01:00 +8°C° 0 mm 1 mps 626 mmHg 46%
    02:00 +8°C° 0 mm 1 mps 625 mmHg 46%
    03:00 +8°C° 0 mm 1 mps 625 mmHg 47%
    04:00 +6°C° 0 mm 0 mps 625 mmHg 47%
    05:00 +7°C° 0 mm 0 mps 625 mmHg 47%
    06:00 +8°C° 0 mm 0 mps 626 mmHg 47%
    07:00 +9°C° 0 mm 0 mps 627 mmHg 44%
    08:00 +12°C° 0 mm 1 mps 627 mmHg 40%
    09:00 +15°C° 0 mm 1 mps 628 mmHg 36%
    10:00 +18°C° 0 mm 1 mps 629 mmHg 32%
    11:00 +18°C° 0 mm 1 mps 629 mmHg 31%
    12:00 +19°C° 0 mm 1 mps 629 mmHg 30%
    13:00 +20°C° 0 mm 1 mps 629 mmHg 29%
    14:00 +19°C° 0 mm 1 mps 628 mmHg 33%
    15:00 +18°C° 0 mm 1 mps 628 mmHg 37%
    16:00 +16°C° 0 mm 1 mps 627 mmHg 40%
    17:00 +14°C° 0 mm 1 mps 627 mmHg 44%
    18:00 +12°C° 0 mm 1 mps 626 mmHg 47%
    19:00 +11°C° 0 mm 1 mps 626 mmHg 51%
    20:00 +10°C° 0 mm 1 mps 626 mmHg 52%
    21:00 +10°C° 0 mm 1 mps 626 mmHg 53%
    22:00 +9°C° 0 mm 1 mps 626 mmHg 54%
    23:00 +9°C° 0 mm 1 mps 626 mmHg 55%

    Tomorrow, 17 October, Thursday

    Time Temperature Precipitation Wind Pressure Humidity
    00:00 +9°C° 0 mm 1 mps 626 mmHg 56%
    01:00 +8°C° 0 mm 1 mps 626 mmHg 56%
    02:00 +8°C° 0 mm 1 mps 626 mmHg 58%
    03:00 +8°C° 0 mm 1 mps 626 mmHg 59%
    04:00 +7°C° 0 mm 1 mps 625 mmHg 60%
    05:00 +7°C° 0 mm 0 mps 626 mmHg 58%
    06:00 +8°C° 0 mm 0 mps 626 mmHg 57%
    07:00 +9°C° 0 mm 0 mps 627 mmHg 55%
    08:00 +12°C° 0 mm 1 mps 628 mmHg 48%
    09:00 +14°C° 0 mm 1 mps 629 mmHg 41%
    10:00 +18°C° 0 mm 1 mps 629 mmHg 35%
    11:00 +18°C° 0 mm 1 mps 629 mmHg 33%
    12:00 +19°C° 0 mm 1 mps 629 mmHg 31%
    13:00 +20°C° 0 mm 1 mps 629 mmHg 29%
    14:00 +19°C° 0 mm 1 mps 629 mmHg 32%
    15:00 +18°C° 0 mm 1 mps 628 mmHg 36%
    16:00 +16°C° 0 mm 1 mps 628 mmHg 40%
    17:00 +14°C° 0 mm 1 mps 628 mmHg 43%
    18:00 +13°C° 0 mm 1 mps 627 mmHg 47%
    19:00 +11°C° 0 mm 1 mps 627 mmHg 50%
    20:00 +10°C° 0 mm 1 mps 627 mmHg 51%
    21:00 +10°C° 0 mm 1 mps 627 mmHg 52%
    22:00 +10°C° 0 mm 1 mps 627 mmHg 53%
    23:00 +9°C° 0 mm 1 mps 627 mmHg 54%

    Day after tomorrow, 18 October, Friday

    Time Temperature Precipitation Wind Pressure Humidity
    00:00 +9°C° 0 mm 1 mps 626 mmHg 55%
    01:00 +7°C° 0 mm 0 mps 626 mmHg 56%
    02:00 +7°C° 0 mm 0 mps 626 mmHg 57%
    03:00 +7°C° 0 mm 0 mps 626 mmHg 58%
    04:00 +7°C° 0 mm 0 mps 626 mmHg 59%
    05:00 +7°C° 0 mm 0 mps 626 mmHg 58%
    06:00 +8°C° 0 mm 0 mps 627 mmHg 56%
    07:00 +9°C° 0 mm 0 mps 627 mmHg 55%
    08:00 +11°C° 0 mm 0 mps 628 mmHg 49%
    09:00 +14°C° 0 mm 1 mps 629 mmHg 44%
    10:00 +16°C° 0 mm 1 mps 629 mmHg 38%
    11:00 +18°C° 0 mm 1 mps 629 mmHg 36%
    12:00 +19°C° 0 mm 1 mps 629 mmHg 35%
    13:00 +20°C° 0 mm 1 mps 629 mmHg 33%
    14:00 +19°C° 0 mm 1 mps 629 mmHg 36%
    15:00 +18°C° 0 mm 1 mps 628 mmHg 40%
    16:00 +16°C° 0 mm 1 mps 628 mmHg 43%
    17:00 +14°C° 0 mm 1 mps 627 mmHg 47%
    18:00 +12°C° 0 mm 1 mps 627 mmHg 51%
    19:00 +11°C° 0 mm 1 mps 626 mmHg 56%
    20:00 +10°C° 0 mm 1 mps 626 mmHg 57%
    21:00 +10°C° 0 mm 1 mps 626 mmHg 59%
    22:00 +9°C° 0 mm 1 mps 626 mmHg 60%
    23:00 +9°C° 0 mm 1 mps 626 mmHg 62%

    19 October, Saturday

    Time Temperature Precipitation Wind Pressure Humidity
    00:00 +9°C° 0 mm 1 mps 626 mmHg 63%
    01:00 +7°C° 0 mm 0 mps 626 mmHg 65%
    02:00 +7°C° 0 mm 0 mps 626 mmHg 67%
    03:00 +7°C° 0 mm 0 mps 626 mmHg 68%
    04:00 +6°C° 0 mm 0 mps 626 mmHg 70%
    05:00 +7°C° 0 mm 0 mps 626 mmHg 68%
    06:00 +8°C° 0 mm 0 mps 626 mmHg 65%
    07:00 +9°C° 0 mm 0 mps 627 mmHg 63%
    08:00 +12°C° 0 mm 1 mps 628 mmHg 56%
    09:00 +14°C° 0 mm 1 mps 629 mmHg 48%
    10:00 +16°C° 0 mm 1 mps 629 mmHg 41%
    11:00 +18°C° 0 mm 1 mps 629 mmHg 39%
    12:00 +18°C° 0 mm 2 mps 629 mmHg 36%
    13:00 +18°C° 0 mm 2 mps 629 mmHg 34%
    14:00 +18°C° 0 mm 2 mps 629 mmHg 37%
    15:00 +17°C° 0 mm 2 mps 628 mmHg 41%
    16:00 +16°C° 0 mm 2 mps 628 mmHg 44%
    17:00 +14°C° 0 mm 1 mps 628 mmHg 49%
    18:00 +12°C° 0 mm 1 mps 627 mmHg 53%
    19:00 +11°C° 0 mm 1 mps 627 mmHg 58%
    20:00 +10°C° 0 mm 1 mps 627 mmHg 59%
    21:00 +10°C° 0 mm 1 mps 627 mmHg 61%
    22:00 +9°C° 0 mm 1 mps 627 mmHg 62%
    23:00 +9°C° 0 mm 1 mps 627 mmHg 63%

    20 October, Sunday

    Time Temperature Precipitation Wind Pressure Humidity
    00:00 +9°C° 0 mm 1 mps 627 mmHg 64%
    01:00 +8°C° 0 mm 1 mps 627 mmHg 65%
    02:00 +8°C° 0 mm 1 mps 627 mmHg 65%
    03:00 +8°C° 0 mm 1 mps 627 mmHg 65%
    04:00 +7°C° 0 mm 1 mps 627 mmHg 66%
    05:00 +7°C° 0 mm 0 mps 627 mmHg 64%
    06:00 +8°C° 0 mm 0 mps 627 mmHg 61%
    07:00 +9°C° 0 mm 0 mps 628 mmHg 59%
    08:00 +12°C° 0 mm 1 mps 629 mmHg 53%
    09:00 +14°C° 0 mm 1 mps 630 mmHg 47%
    10:00 +16°C° 0 mm 1 mps 630 mmHg 40%
    11:00 +18°C° 0 mm 1 mps 630 mmHg 38%
    12:00 +19°C° 0 mm 1 mps 630 mmHg 37%
    13:00 +19°C° 0 mm 2 mps 630 mmHg 35%
    14:00 +19°C° 0 mm 1 mps 630 mmHg 38%
    15:00 +18°C° 0 mm 1 mps 629 mmHg 42%
    16:00 +16°C° 0 mm 1 mps 629 mmHg 45%
    17:00 +14°C° 0 mm 1 mps 629 mmHg 49%
    18:00 +12°C° 0 mm 1 mps 628 mmHg 54%
    19:00 +11°C° 0 mm 1 mps 628 mmHg 58%
    20:00 +10°C° 0 mm 1 mps 628 mmHg 59%
    21:00 +10°C° 0 mm 1 mps 628 mmHg 60%
    22:00 +9°C° 0 mm 1 mps 628 mmHg 61%
    23:00 +9°C° 0 mm 1 mps 628 mmHg 62%

    21 October, Monday

    Time Temperature Precipitation Wind Pressure Humidity
    00:00 +9°C° 0 mm 1 mps 628 mmHg 63%
    01:00 +8°C° 0 mm 1 mps 628 mmHg 65%
    02:00 +8°C° 0 mm 1 mps 628 mmHg 66%
    03:00 +8°C° 0 mm 1 mps 628 mmHg 67%
    04:00 +8°C° 0 mm 1 mps 627 mmHg 68%
    05:00 +8°C° 0 mm 1 mps 628 mmHg 66%
    06:00 +9°C° 0 mm 1 mps 628 mmHg 64%
    07:00 +10°C° 0 mm 1 mps 629 mmHg 62%
    08:00 +12°C° 0 mm 1 mps 629 mmHg 55%
    09:00 +14°C° 0 mm 1 mps 630 mmHg 49%
    10:00 +16°C° 0 mm 1 mps 631 mmHg 42%
    11:00 +18°C° 0 mm 1 mps 631 mmHg 39%
    12:00 +19°C° 0 mm 1 mps 631 mmHg 37%
    13:00 +19°C° 0 mm 1 mps 631 mmHg 34%
    14:00 +18°C° 0 mm 1 mps 631 mmHg 37%
    15:00 +18°C° 0 mm 1 mps 630 mmHg 40%
    16:00 +16°C° 0 mm 1 mps 629 mmHg 43%
    17:00 +14°C° 0 mm 1 mps 629 mmHg 46%
    18:00 +12°C° 0 mm 1 mps 629 mmHg 50%
    19:00 +10°C° 0 mm 1 mps 628 mmHg 54%
    20:00 +10°C° 0 mm 1 mps 628 mmHg 55%
    21:00 +9°C° 0 mm 1 mps 628 mmHg 57%
    22:00 +9°C° 0 mm 1 mps 628 mmHg 58%
    23:00 +8°C° 0 mm 1 mps 628 mmHg 60%
    Show more